Flag for U.S.A. Weather past 2 weeks in El Monte, California, U.S.A.

Now
69 °F

Passing clouds.


Feels Like: 69 °F
Forecast: 58 / 69 °F
Wind: 7 mph from Southeast

Location: Fullerton Municipal Airport


UV Index: 0 (Low)

Visibility: 10 mi


Pressure: 29.90 "Hg

Humidity: 55%

Dew point: 52 °F

Location of El MonteLocation

Historic Weather in El Monte

°F

El Monte temperature yesterday

Maximum temperature yesterday: 70 °F (at 11:53 AM)
Minimum temperature yesterday: 60 °F (at 1:53 AM)
Average temperature yesterday: 63 °F

Past Weeks' High & Low Weather Summary

 TemperatureHumidityPressure
High94 °F (Apr 8, 2:53 PM)87% (Apr 15, 2:53 AM)30.11 "Hg (Apr 15, 2:53 AM)
Low51 °F (Apr 6, 4:53 AM)10% (Apr 8, 3:53 PM)29.78 "Hg (Apr 16, 4:53 PM)
Average65 °F56%29.96 "Hg
* Reported Apr 3 11:53 AM — Apr 18 11:53 AM, El Monte, Weather by CustomWeather, © 2014

Note: Actual official high and low records may vary slightly from our data, if they occured in-between our weather recording intervals... More about our weather records

Advertising

Historic Weather Conditions — Data for Previous 24 hours

 ConditionsComfort  
Time TempWeatherWind HumidityBarometerVisibility
11:53 AM
Apr 18
69 °FPassing clouds.7 mph55%29.90 "Hg10 mi
10:53 AM68 °FSunny.7 mph57%29.92 "Hg10 mi
9:53 AM65 °FOvercast.No wind63%29.92 "Hg10 mi
8:53 AM64 °FOvercast.No wind65%29.91 "Hg10 mi
7:53 AM63 °FOvercast.No wind65%29.90 "Hg10 mi
6:53 AM62 °FOvercast.3 mph70%29.87 "Hg10 mi
5:53 AM62 °FOvercast.3 mph67%29.85 "Hg10 mi
4:53 AM62 °FOvercast.5 mph70%29.86 "Hg10 mi
3:53 AM62 °FOvercast.6 mph70%29.85 "Hg10 mi
2:53 AM62 °FOvercast.5 mph70%29.86 "Hg10 mi
1:53 AM63 °FOvercast.5 mph70%29.88 "Hg10 mi
12:53 AM63 °FOvercast.5 mph70%29.89 "Hg10 mi
11:53 PM
Apr 17
63 °FOvercast.5 mph70%29.90 "Hg10 mi
10:53 PM62 °FOvercast.6 mph73%29.91 "Hg10 mi
9:53 PM62 °FOvercast.7 mph73%29.91 "Hg10 mi
8:53 PM62 °FOvercast.9 mph73%29.89 "Hg10 mi
7:53 PM62 °FOvercast.5 mph73%29.87 "Hg10 mi
6:53 PM62 °FPartly sunny.6 mph73%29.85 "Hg9 mi
5:53 PM65 °FPassing clouds.8 mph66%29.85 "Hg10 mi
4:53 PM66 °FSunny.9 mph63%29.84 "Hg9 mi
3:53 PM68 °FPassing clouds.7 mph61%29.84 "Hg10 mi
2:53 PM68 °FSunny.9 mph61%29.87 "Hg10 mi
1:53 PM68 °FSunny.13 mph61%29.87 "Hg10 mi
Weather by CustomWeather, © 2014

See weather overview